Location: Veytaux
(46.4185°N, 6.9320°E)
Time: 07:50:18
(UTC+00:00)

Cosmos 1975 Rocket - Pass Details

Date: 27 May 2022
Orbit: 603 x 633 km, 82.5° (Epoch: 01 July)

Event Time Altitude Azimuth Distance (km) Brightness Sun altitude
Exits shadow 00:56:46 46° 195° (SSW) 839 3.2 -19.5°
Maximum altitude 00:58:03 84° 277° (W) 637 3.0 -19.4°
Drops below altitude 10° 01:02:33 10° 8° (N) 2,022 6.8 -19.1°
Sets 01:04:49 0° 9° (N) 2,937 8.0 -19.0°
